Weather in Petrushina Gora

Russia / Saint-Petersburg and Leningrad Oblast     58°49′48″N   30°16′13″E
temp.,
°C
wind,
m/s
gust,
m/s
humid.,
%
clouds,
%
prec.,
mm/h
press.,
hPa
HPBL,
m
10 may, mon
mon1000:00+4s37745 0.0 1021117
03:00+3s3117799 0.0 1022217
06:00+6s41367100 0.0 1022429
09:00+5sse51483100 0.5 1022415
12:00+14ssw6955100 0.0 1022857
15:00+17ssw685256 0.0 10221187
18:00+18ssw58585 0.0 10221386
21:00+13s3118192 0.0 1023303
11 may, tue
tue1100:00+11s41385100 0.0 1024358
03:00+9s31289100 0.0 1025299
06:00+8s31089100 0.0 1026238
09:00+14s476476 0.0 1026433
12:00+18s4650100 0.0 1026966
15:00+20s454444 0.0 10261135
18:00+19sse3652100 0.0 1025940
21:00+13se357919 0.0 102576
12 may, wed
wed1200:00+11se278197 0.0 1026125
03:00+9sse268666 0.0 1026110
06:00+9se2581100 0.0 1026115
09:00+15se356287 0.0 1025363
12:00+20se35545 0.0 1025861
15:00+22se345110 0.0 10231210
18:00+22ese25530 0.0 10211280
21:00+16ne311820 0.0 1020237
13 may, thu
thu1300:00+15e314795 0.0 1019424
03:00+14e3118618 0.0 1019539
06:00+13se499353 0.0 1019576
09:00+14se47615 0.0 1019779
12:00+17ese47485 0.0 10181233
15:00+18se51049100 0.0 10172056
18:00+16se5106481 0.3 10161421
21:00+12se228299 0.3 101621
14 may, fri
fri1400:00+9se23867 0.0 101743
03:00+8ese26885 0.0 1017102
06:00+10ese399010 0.0 1016226
09:00+15ese4769100 0.0 1015477
12:00+19se5752100 0.0 10141221
15:00+20ese475327 0.0 10131321
18:00+19ese5971100 0.8 1011852
21:00+14e3119199 1.8 1009344